This demonstration page uses our WeatherBlox Daily Observations layout. Learn more.

Left ArrowRight Arrow

41.86663, -103.66717

Hourly Observations for February 20, 2016

Temp ( °F °C ) Dew Point ( °F °C ) Humidity (%) Winds ( mph kmh ) Pressure ( in mb ) Visibility ( mi km ) Precip ( " mm )
12:53 am 00:53 Clear 31 -0.6 20 -6.7 64 64 N 8 13 29.96 1015 10 16 N/A
1:53 am 01:53 Clear 36 2.2 20 -6.7 52 52 NNW 5 7 29.96 1015 10 16 N/A
2:53 am 02:53 Clear 30 -1.1 21 -6.1 69 69 N 3 6 29.98 1015 10 16 N/A
3:53 am 03:53 Clear 33 0.6 22 -5.6 64 64 N 5 7 29.97 1015 10 16 N/A
4:53 am 04:53 Clear 31 -0.6 22 -5.6 69 69 NW 6 9 30.00 1016 10 16 N/A
5:53 am 05:53 Clear 31 -0.6 22 -5.6 69 69 N N/A 30.02 1017 10 16 N/A
6:53 am 06:53 Sunny 31 -0.6 23 -5 72 72 NNW 5 7 30.04 1017 10 16 N/A
7:53 am 07:53 Sunny 35 1.7 27 -2.8 72 72 N N/A 30.06 1018 10 16 N/A
8:53 am 08:53 Sunny 44 6.7 29 -1.7 55 55 N N/A 30.04 1017 10 16 N/A
9:53 am 09:53 Sunny 54 12.2 25 -3.9 33 33 VRB 6 9 30.05 1018 10 16 N/A
10:53 am 10:53 Sunny 59 15 23 -5 25 25 WNW 12 19 30.00 1016 10 16 N/A
11:53 am 11:53 Mostly Cloudy 58 14.4 23 -5 26 26 NW 7 11 29.98 1015 10 16 N/A
12:53 pm 12:53 Mostly Cloudy 58 14.4 24 -4.4 27 27 N 7 11 29.96 1014 10 16 N/A
1:53 pm 13:53 Cloudy 55 12.8 27 -2.8 34 34 WSW 6 9 29.95 1014 10 16 N/A
2:53 pm 14:53 Cloudy 54 12.2 30 -1.1 40 40 WNW 12 19 30.01 1016 10 16 N/A
3:53 pm 15:53 Partly Cloudy 53 11.7 30 -1.1 41 41 W 26 43 30.01 1016 10 16 N/A
4:53 pm 16:53 Sunny 50 10 32 undefined 50 50 NW 15 24 30.05 1018 10 16 N/A
5:53 pm 17:53 Clear 44 6.7 29 -1.7 55 55 WNW 10 17 30.11 1020 10 16 N/A
6:53 pm 18:53 Mostly Cloudy 43 6.1 28 -2.2 56 56 N 17 28 30.16 1021 10 16 N/A
7:00 pm 19:00 Partly Cloudy 41 5 30 -1 66 66 N 18 30 30.18 1022 10 16 N/A
7:53 pm 19:53 Clear 37 2.8 30 -1.1 76 76 NNW 12 19 30.18 1022 10 16 N/A
8:53 pm 20:53 Clear 32 undefined 28 -2.2 85 85 WNW 7 11 30.20 1023 10 16 N/A
9:53 pm 21:53 Clear 31 -0.6 28 -2.2 89 89 NW 6 9 30.19 1022 10 16 N/A
10:53 pm 22:53 Clear 31 -0.6 27 -2.8 85 85 WNW 7 11 30.20 1023 10 16 N/A
11:53 pm 23:53 Clear 30 -1.1 24 -4.4 79 79 W 7 11 30.23 1024 10 16 N/A

Powered by AerisWeather